CW8164 Weather Reports


Display with metric or nautical units.
time (UTC)temp
F
wind
direction
speed
MPH
gust
MPH
rain 1hr
in
rain 24hr
in
rain mn
in
humidity
%
barometer
mb
20180121080905 47 84 3.0 8.0 0.00 0.02 0.00 72 1017.3
20180121080405 47 71 3.0 7.0 0.00 0.02 0.00 72 1017.4
20180121074906 47 122 2.0 6.0 0.00 0.02 0.02 71 1017.5
20180121074408 47 165 2.0 3.0 0.00 0.02 0.02 69 1017.6
20180121073406 47 111 2.0 6.0 0.00 0.02 0.02 69 1017.6
20180121070406 47 98 2.0 6.0 0.00 0.02 0.02 71 1017.8
20180121065406 47 105 1.0 7.0 0.00 0.02 0.02 72 1017.8
20180121064906 47 110 2.0 7.0 0.00 0.02 0.02 72 1017.8
20180121063406 47 75 2.0 8.0 0.00 0.02 0.02 73 1017.9
20180121060906 46 86 2.0 3.0 0.00 0.03 0.02 75 1018.0
20180121060405 46 97 2.0 3.0 0.00 0.04 0.02 76 1018.1
20180121054905 46 123 2.0 8.0 0.00 0.05 0.02 76 1018.1
20180121054406 46 112 2.0 6.0 0.00 0.05 0.02 76 1018.2
20180121053906 46 117 2.0 6.0 0.00 0.05 0.02 77 1018.2
20180121052905 46 114 2.0 7.0 0.00 0.06 0.02 78 1018.2
20180121052405 46 70 1.0 8.0 0.00 0.06 0.02 79 1018.3
20180121045906 45 84 3.0 6.0 0.00 0.08 0.02 80 1018.4
20180121043905 45 117 2.0 3.0 0.00 0.09 0.02 81 1018.6
20180121042905 45 79 1.0 3.0 0.00 0.09 0.02 81 1018.7
20180121041405 46 251 2.0 3.0 0.00 0.09 0.02 81 1018.9
20180121040906 46 83 1.0 3.0 0.00 0.09 0.02 81 1018.8
20180121040405 46 107 1.0 5.0 0.00 0.09 0.02 80 1018.9
20180121035905 46 103 2.0 5.0 0.00 0.09 0.02 80 1018.9
20180121035406 46 106 1.0 3.0 0.00 0.09 0.02 81 1018.9
20180121034906 46 106 1.0 6.0 0.00 0.09 0.02 81 1018.9
20180121034405 46 115 2.0 7.0 0.00 0.09 0.02 80 1018.9
20180121031406 46 120 2.0 7.0 0.00 0.09 0.02 82 1019.0
20180121030405 46 114 2.0 6.0 0.00 0.09 0.02 84 1019.0
20180121024905 46 104 2.0 7.0 0.00 0.09 0.02 84 1019.1
20180121024405 46 105 3.0 6.0 0.00 0.09 0.02 84 1019.2
20180121023906 46 102 2.0 6.0 0.00 0.09 0.02 84 1019.2
20180121023406 46 134 1.0 6.0 0.00 0.09 0.02 83 1019.2
20180121022406 46 201 2.0 7.0 0.00 0.09 0.02 81 1019.2
20180121021905 46 103 2.0 7.0 0.00 0.09 0.02 81 1019.3
20180121021406 46 174 1.0 5.0 0.00 0.09 0.02 81 1019.3
20180121020906 46 62 1.0 6.0 0.00 0.09 0.02 82 1019.3
20180121020405 46 113 1.0 6.0 0.00 0.09 0.02 81 1019.3
20180121015906 46 199 2.0 6.0 0.00 0.09 0.02 81 1019.3
20180121014905 46 184 2.0 5.0 0.00 0.09 0.02 80 1019.3
20180121014406 46 99 2.0 9.0 0.00 0.09 0.02 81 1019.3
20180121013905 46 163 1.0 9.0 0.00 0.09 0.02 82 1019.3
20180121013405 46 180 1.0 6.0 0.00 0.09 0.02 81 1019.3
20180121012405 46 103 1.0 3.0 0.00 0.09 0.02 83 1019.3
20180121011906 46 77 1.0 3.0 0.01 0.09 0.02 83 1019.2
20180121011405 46 309 0.0 2.0 0.01 0.09 0.02 83 1019.3
20180121010906 46 41 1.0 2.0 0.01 0.09 0.02 84 1019.3
20180121010406 46 72 1.0 3.0 0.01 0.09 0.02 84 1019.3
20180121005905 46 75 1.0 3.0 0.01 0.09 0.02 85 1019.2
20180121004406 46 169 2.0 5.0 0.01 0.09 0.02 84 1019.3
20180121003906 46 88 1.0 3.0 0.01 0.09 0.02 83 1019.3
20180121003406 46 86 1.0 3.0 0.01 0.09 0.02 83 1019.4
20180121002906 47 146 1.0 3.0 0.01 0.09 0.02 83 1019.3
20180121002405 47 211 0.0 3.0 0.01 0.09 0.02 82 1019.3
20180121001905 47 204 1.0 3.0 0.00 0.08 0.01 80 1019.3
20180121000905 47 86 2.0 3.0 0.00 0.08 0.01 80 1019.2
20180121000405 47 249 2.0 3.0 0.00 0.08 0.01 80 1019.1
20180120235905 47 132 1.0 3.0 0.00 0.08 0.01 81 1019.1
20180120235405 47 219 1.0 7.0 0.00 0.08 0.01 80 1019.1
20180120234406 47 148 2.0 6.0 0.00 0.08 0.01 80 1019.1
20180120233906 47 243 1.0 3.0 0.00 0.08 0.01 81 1019.1
20180120232905 47 121 1.0 6.0 0.00 0.08 0.01 81 1019.2
20180120231405 47 115 2.0 7.0 0.00 0.08 0.01 80 1019.1
20180120230906 47 119 2.0 3.0 0.00 0.08 0.01 82 1019.1
20180120230406 47 116 1.0 5.0 0.00 0.08 0.01 80 1019.0
20180120225905 47 188 1.0 6.0 0.00 0.08 0.01 81 1019.0
20180120225405 47 185 1.0 6.0 0.00 0.08 0.01 83 1018.9
20180120224906 47 208 1.0 3.0 0.00 0.08 0.01 82 1019.0
20180120223905 47 192 1.0 6.0 0.00 0.08 0.01 83 1019.0
20180120223406 47 225 2.0 6.0 0.00 0.08 0.01 83 1019.0
20180120222405 47 176 1.0 3.0 0.00 0.08 0.01 84 1019.1
20180120221905 47 90 2.0 3.0 0.00 0.08 0.01 84 1019.1
20180120221405 47 93 2.0 3.0 0.00 0.08 0.01 83 1019.1
20180120220905 47 200 1.0 3.0 0.00 0.08 0.01 83 1019.1
20180120220405 47 204 1.0 3.0 0.00 0.08 0.01 84 1019.1
20180120215905 46 80 1.0 5.0 0.00 0.08 0.01 86 1019.1
20180120214905 46 162 2.0 6.0 0.00 0.08 0.01 85 1019.3
20180120214406 46 171 0.0 10.0 0.00 0.08 0.01 86 1019.3
20180120212405 45 190 2.0 3.0 0.00 0.08 0.01 88 1019.4
20180120211905 45 186 1.0 9.0 0.00 0.08 0.01 87 1019.4
20180120211404 45 199 2.0 9.0 0.00 0.08 0.01 86 1019.5
20180120210905 45 164 2.0 7.0 0.00 0.08 0.01 88 1019.5
20180120210405 45 57 2.0 3.0 0.00 0.08 0.01 89 1019.6
20180120205905 45 97 1.0 3.0 0.00 0.08 0.01 89 1019.6
20180120205405 45 24 1.0 6.0 0.00 0.08 0.01 89 1019.6
20180120204405 44 182 2.0 6.0 0.00 0.08 0.01 90 1019.7
20180120203906 44 190 1.0 3.0 0.00 0.08 0.01 90 1019.8
20180120202906 44 65 1.0 3.0 0.00 0.08 0.01 90 1019.8
20180120201905 44 39 1.0 3.0 0.00 0.08 0.01 90 1019.9
20180120200905 44 128 1.0 2.0 0.00 0.08 0.01 91 1019.9
20180120200405 44 127 0.0 2.0 0.00 0.08 0.01 91 1020.0
20180120195905 44 127 1.0 2.0 0.00 0.08 0.01 90 1020.0
20180120194905 44 127 0.0 2.0 0.00 0.08 0.01 91 1020.1
20180120193905 43 127 1.0 2.0 0.00 0.08 0.01 91 1020.3
20180120193405 43 127 1.0 2.0 0.00 0.08 0.01 91 1020.3
20180120192905 43 117 1.0 3.0 0.00 0.08 0.01 91 1020.2
20180120191405 43 103 1.0 3.0 0.00 0.08 0.01 92 1020.3
20180120190405 43 110 1.0 3.0 0.00 0.08 0.01 91 1020.3
20180120185905 43 123 0.0 3.0 0.00 0.08 0.01 92 1020.3
20180120184904 43 200 1.0 3.0 0.00 0.08 0.01 92 1020.2
20180120183905 43 140 1.0 3.0 0.00 0.08 0.01 92 1020.0
20180120182404 43 43 1.0 2.0 0.00 0.08 0.01 92 1020.1
20180120180405 43 109 0.0 3.0 0.00 0.08 0.01 92 1020.1
20180120175905 42 109 0.0 3.0 0.00 0.08 0.01 92 1020.1
20180120174905 42 123 2.0 3.0 0.00 0.08 0.01 92 1020.1
20180120173905 42 115 0.0 2.0 0.00 0.08 0.01 92 1020.0
20180120173405 42 115 1.0 2.0 0.00 0.08 0.01 92 1020.0
20180120172905 42 115 1.0 3.0 0.00 0.08 0.01 92 1020.0
20180120171905 42 59 1.0 2.0 0.00 0.08 0.01 92 1020.0
20180120171405 42 107 0.0 2.0 0.00 0.08 0.01 92 1019.9
20180120170905 42 107 0.0 3.0 0.00 0.08 0.01 92 1019.9
20180120170405 42 107 1.0 3.0 0.00 0.08 0.01 92 1019.9
20180120164905 42 114 1.0 3.0 0.00 0.08 0.01 92 1019.8
20180120164405 42 113 1.0 3.0 0.00 0.08 0.01 92 1019.8
20180120163904 42 117 1.0 3.0 0.00 0.08 0.01 92 1019.8
20180120163404 42 117 0.0 3.0 0.00 0.08 0.01 92 1019.8
20180120162404 41 109 1.0 3.0 0.01 0.09 0.01 93 1019.7
20180120161905 41 104 1.0 3.0 0.01 0.09 0.01 93 1019.7
20180120155405 41 280 0.0 3.0 0.01 0.09 0.01 93 1019.5
20180120154404 41 349 1.0 3.0 0.01 0.09 0.01 93 1019.5
20180120152904 41 276 2.0 6.0 0.01 0.09 0.01 93 1019.4
20180120152405 41 96 2.0 6.0 0.00 0.08 0.00 93 1019.4
20180120151405 41 170 2.0 3.0 0.00 0.08 0.00 93 1019.3
20180120150904 41 161 1.0 3.0 0.00 0.08 0.00 94 1019.3
20180120145905 41 222 1.0 3.0 0.00 0.08 0.00 94 1019.3
20180120145404 41 207 0.0 3.0 0.00 0.08 0.00 94 1019.2
20180120144905 41 207 1.0 3.0 0.00 0.08 0.00 93 1019.2
20180120143905 41 203 0.0 3.0 0.00 0.09 0.00 93 1019.2
20180120143405 41 203 1.0 3.0 0.00 0.09 0.00 93 1019.1
20180120142405 41 204 1.0 3.0 0.00 0.09 0.00 93 1019.1
20180120140904 41 165 0.0 2.0 0.00 0.09 0.00 93 1018.9
20180120140405 41 172 1.0 2.0 0.00 0.09 0.00 94 1018.8
20180120135905 42 205 0.0 3.0 0.00 0.09 0.00 93 1018.8
20180120135404 42 205 0.0 3.0 0.00 0.09 0.00 93 1018.8
20180120134904 42 86 0.0 6.0 0.00 0.09 0.00 93 1018.8
20180120134405 42 94 1.0 6.0 0.00 0.09 0.00 93 1018.7
20180120133404 42 175 0.0 7.0 0.00 0.09 0.00 94 1018.7
20180120132404 42 171 1.0 8.0 0.00 0.09 0.00 94 1018.7
20180120131905 42 206 1.0 8.0 0.00 0.09 0.00 94 1018.7
20180120131404 42 221 2.0 8.0 0.00 0.09 0.00 94 1018.6
20180120130904 42 239 0.0 5.0 0.00 0.09 0.00 94 1018.6
20180120130405 42 196 1.0 5.0 0.00 0.09 0.00 94 1018.6
20180120125904 42 218 2.0 5.0 0.00 0.09 0.00 94 1018.6
20180120125406 42 176 1.0 3.0 0.00 0.09 0.00 94 1018.5
20180120124404 41 141 1.0 3.0 0.00 0.09 0.00 94 1018.4
20180120123905 41 160 0.0 2.0 0.00 0.09 0.00 94 1018.3
20180120122406 42 159 0.0 2.0 0.00 0.09 0.00 94 1018.2
20180120121906 42 159 1.0 2.0 0.00 0.09 0.00 94 1018.1
20180120120905 42 139 1.0 9.0 0.00 0.09 0.00 94 1018.1
20180120120405 42 146 2.0 9.0 0.00 0.09 0.00 93 1018.2
20180120115905 42 206 3.0 9.0 0.00 0.09 0.00 93 1018.2
20180120114905 42 259 2.0 6.0 0.00 0.09 0.00 93 1018.1
20180120114404 42 133 0.0 3.0 0.00 0.09 0.00 93 1018.1
20180120112406 42 178 1.0 12.0 0.00 0.09 0.00 93 1018.1
20180120110905 42 216 1.0 3.0 0.00 0.09 0.00 93 1018.2
20180120105406 42 203 1.0 3.0 0.00 0.09 0.00 93 1018.1
20180120104904 42 137 2.0 3.0 0.00 0.09 0.00 93 1018.1
20180120104404 42 116 1.0 3.0 0.00 0.09 0.00 93 1018.1
20180120103904 42 117 1.0 3.0 0.00 0.09 0.00 93 1018.1
20180120100404 41 199 1.0 5.0 0.00 0.09 0.00 93 1017.7
20180120094904 42 177 1.0 5.0 0.00 0.09 0.00 94 1017.6
20180120094405 42 225 1.0 3.0 0.00 0.09 0.00 94 1017.6
20180120093904 42 213 1.0 6.0 0.00 0.09 0.00 94 1017.4
20180120093404 42 213 1.0 6.0 0.00 0.09 0.00 94 1017.4
20180120092904 42 193 1.0 6.0 0.00 0.09 0.00 94 1017.4
20180120092405 42 192 2.0 6.0 0.00 0.09 0.00 94 1017.4
20180120091904 42 188 1.0 3.0 0.00 0.09 0.00 94 1017.5
20180120091405 42 192 1.0 5.0 0.00 0.09 0.00 94 1017.4
20180120090404 42 178 2.0 5.0 0.00 0.09 0.00 94 1017.5
20180120084405 42 202 2.0 3.0 0.00 0.09 0.00 94 1017.5
20180120083404 42 177 2.0 8.0 0.00 0.09 0.00 94 1017.5
20180120082904 42 215 2.0 8.0 0.00 0.09 0.00 94 1017.4
20180120081904 42 240 2.0 8.0 0.00 0.09 0.00 93 1017.4